Regional Weather Roundup
Issued by NWS

Home | Current Version | Previous Version | Text Only | Print | Product List | Glossary On
Versions: 1 2 3 4 5 6 7 8 9 10 11 12 13 14 15 16 17 18 19 20 21 22 23 24 25 26 27 28 29 30 31 32 33 34 35 36 37 38 39 40 41 42 43 44 45 46 47 48 49 50
000
ASUS43 KTOP 301059
RWRKS

WEATHER ROUNDUP FOR KANSAS
NATIONAL WEATHER SERVICE GOODLAND KS
600 AM CDT THU JUL 30 2015

NOTE:  "FAIR" INDICATES FEW OR NO CLOUDS BELOW 12,000 FEET WITH NO
SIGNIFICANT WEATHER AND/OR OBSTRUCTIONS TO VISIBILITY.

KSZ001>006-013>018-027>032-041>047-301200-
NORTHWEST KANSAS

CITY           SKY/WX    TMP DP  RH WIND       PRES   REMARKS
GOODLAND       CLEAR     57  55  93 S5        30.28S
HAYS           CLOUDY    68  57  68 NE6       30.22R
HILL CITY      CLOUDY    67  62  84 NE5       30.23S
RUSSELL        CLOUDY    66  61  84 NE6       30.20S
$$

KSZ061>065-074>080-084>089-301200-
SOUTHWEST KANSAS

CITY           SKY/WX    TMP DP  RH WIND       PRES   REMARKS
DODGE CITY     MOCLDY    68  66  93 NE3       30.21F
ELKHART          N/A     67  62  84 E3          N/A
GARDEN CITY    CLOUDY    67  65  93 N3        30.24R FOG
GREAT BEND     CLOUDY    70  64  83 CALM      30.20R
LIBERAL        CLOUDY    70  64  83 E5        30.21F
$$

KSZ066>073-081>083-090>101-301200-
SOUTHEAST KANSAS

CITY           SKY/WX    TMP DP  RH WIND       PRES   REMARKS
CHANUTE        PTCLDY    73  66  78 E8        30.14F
COFFEYVILLE    CLEAR     73  66  78 NE5       30.11F
HUTCHINSON     CLOUDY    71  68  90 W9        30.20R
MEDICINE LODGE   N/A     69  69 100 N21G31    30.18R
PARSONS        PTCLDY    73  66  78 VRB3      30.14F
WICHITA INTL   CLOUDY    75  65  70 E10       30.12S
WICHITA JABRA  CLOUDY    71  67  87 NE8       30.14R
WINFIELD       MOCLDY    74  67  78 E9        30.13S
$$

KSZ007>012-019>026-033>040-048>060-102>105-301200-
NORTHEAST KANSAS

CITY           SKY/WX    TMP DP  RH WIND       PRES   REMARKS
CONCORDIA      FOG       61  60  97 CALM      30.21R VSB 1/2
EMPORIA        CLOUDY    70  67  90 NE7       30.16S
LAWRENCE       CLEAR     62  61  96 CALM      30.17F
MANHATTAN      CLEAR     64  63  96 CALM      30.18S
OLATHE IND     CLEAR     67  66  97 NE6       30.18F
OLATHE EXE     CLEAR     66  63  90 NE3       30.17F
SALINA         MOCLDY    68  64  87 NW6       30.19R
TOPEKA BILLARD FOG       64  64 100 CALM      30.17F VSB 1/4
TOPEKA FORBES  CLEAR     65  61  87 CALM      30.17F
$$



USA.gov is the U.S. government's official web portal to all federal, state and local government web resources and services.